Regional Weather Roundup
Issued by NWS

Home | Current Version | Previous Version | Graphics & Text | Print | Product List | Glossary On
Versions: 1 2 3 4 5 6 7 8 9 10 11 12 13 14 15 16 17 18 19 20 21 22 23 24 25 26 27 28 29 30 31 32 33 34 35 36 37 38 39 40 41 42 43 44 45 46 47 48 49 50
000
ASUS45 KTFX 020110
RWRMT
MONTANA REGIONAL WEATHER ROUNDUP
NATIONAL WEATHER SERVICE GREAT FALLS MT
700 PM MDT SAT AUG 01 2015

NOTE: "FAIR" INDICATES FEW OR NO CLOUDS BELOW 12000 FEET WITH NO
SIGNIFICANT WEATHER AND/OR OBSTRUCTIONS TO VISIBILITY.

MTZ001>007-043-020200-
WEST OF THE DIVIDE

CITY           SKY/WX    TMP DP  RH WIND       PRES   REMARKS
KALISPELL      CLEAR     97  20   6 NW6       29.86F HX  90
MISSOULA       SUNNY     92  26   9 W13       29.92F
BUTTE          SUNNY     86  28  12 NW14      30.08F
MULLAN PASS    SUNNY     76  27  16 W5        30.17F
DEER LODGE       N/A     88  37  16 NW13      30.05S
EUREKA           N/A     95  27   8 SW8       29.86S
HAMILTON         N/A     93  32  11 SW8       29.93F
LIBBY            N/A     93  28  10 SW5       29.87S
PLAINS           N/A     95  38  13 SW13      29.90S HX  90
RONAN            N/A     95  40  14 SW10      29.96S HX  91
THOMPSON FALLS   N/A     95  30  10 SW10      29.92S
$$

MTZ008-052>055-020200-
SOUTHWEST MONTANA

CITY           SKY/WX    TMP DP  RH WIND       PRES   REMARKS
BOZEMAN        MOSUNNY   86  45  23 N6        29.99F
DILLON         MOSUNNY   82  47  29 W7        30.05F
W YELLOWSTONE  SUNNY     81  27  13 SW5       30.20F
THREE FORKS      N/A     90  32  12 NE2       29.97F
TWIN BRIDGES     N/A     90  36  14 SE2       30.02F
$$

MTZ009-010-012-014-046-048-049-054-020200-
EAST SLOPES AND CENTRAL MONTANA

CITY           SKY/WX    TMP DP  RH WIND       PRES   REMARKS
CUT BANK       SUNNY     89  32  13 W13       29.90F
GREAT FALLS    SUNNY     94  18   6 W12G18    29.90F
MALMSTROM AFB  SUNNY     94  24   8 W14       29.89F
HELENA         SUNNY     95  33  11 W12       29.92F HX  90
CONRAD           N/A     93  35  13 SW6       29.94S
$$

MTZ011-013-016-021-045-047-050-051-020200-
NORTH CENTRAL MONTANA

CITY           SKY/WX    TMP DP  RH WIND       PRES   REMARKS
HAVRE          SUNNY     91  36  14 N10       29.82S
LEWISTOWN      SUNNY     91  32  12 N6        29.95F
CHINOOK          N/A     86  52  30 NE7       29.83R
FORT BENTON      N/A     95  27   8 NW7       29.84S
$$

MTZ017>020-022>027-061-062-020200-
NORTHEAST MONTANA

CITY           SKY/WX    TMP DP  RH WIND       PRES   REMARKS
GLASGOW        SUNNY     89  44  20 N14       29.80R
JORDAN           N/A     96  25   8 W14       29.83S HX  90
SIDNEY         SUNNY    N/A N/A N/A NW13      29.75S
WOLF POINT     SUNNY     92  46  20 N20G29    29.78R
MALTA            N/A     89  51  27 NE8       29.80R
PLENTYWOOD       N/A     82  57  42 N20G29    29.80R
POPLAR           N/A     88  55  33 NW20G25   29.79R
SCOBEY           N/A     82  54  38 N14       29.85R
$$

MTZ028>42-056>058-020200-
SOUTHCENTRAL AND SOUTHEAST MONTANA

CITY           SKY/WX    TMP DP  RH WIND       PRES   REMARKS
BAKER          SUNNY     93  34  12 NW22G32   29.85R
BILLINGS       MOSUNNY   95  29   9 NW13G21   29.92F
LIVINGSTON     SUNNY     91  31  11 W14       29.99F
MILES CITY     SUNNY     96  29   9 NW17G25   29.82S HX  90
FORSYTH          N/A     97  30   9 NW6       29.83F HX  91
LAUREL           N/A     95  32  11 W10       29.92F HX  90
ROUNDUP          N/A     94  29  10 NW14      29.83F
$$

REGIONAL REPORTS...DAKOTAS

CITY           SKY/WX    TMP DP  RH WIND       PRES   REMARKS
WILLISTON      SUNNY     94  33  11 NW26G33   29.74R
MINOT          SUNNY     85  53  33 SE6       29.69F
DICKINSON      SUNNY     87  47  24 W10       29.75F
BEACH          FAIR      90  30  12 NW18G28   29.83R
CROSBY         FAIR      82  55  39 N28G35    29.72R
BISMARCK       SUNNY     86  59  39 SE6       29.75F
GRAND FORKS    CLEAR     82  64  54 S6        29.70F
FARGO          CLEAR     83  64  52 SE6       29.72F
BUFFALO SD       N/A     92  32  12 W13       29.79F
RAPID CITY     SUNNY     86  58  38 S6        29.91F
$$

REGIONAL REPORTS...WYOMING/IDAHO/WASHINGTON

CITY           SKY/WX    TMP DP  RH WIND       PRES   REMARKS
GILLETTE       SUNNY     91  25   9 N10       29.99S
SHERIDAN       SUNNY     90  31  12 NW9       29.97S
BUFFALO WY     SUNNY     89  30  12 N9        30.06F
CODY           SUNNY     82  39  21 N7        30.05F
YELLOWSTONE LA   N/A     72  40  31 CALM      30.32F
IDAHO FALLS    SUNNY     92  32  12 S5        30.04F
SALMON         SUNNY     93  41  16 N5        29.91F
BOISE          SUNNY    101  34   9 NW8       29.88F HX  95
SPOKANE        PTSUNNY   95  18   6 W13       29.88F
$$

REGIONAL REPORTS...ALBERTA

CITY           SKY/WX    TMP DP  RH WIND       PRES   REMARKS
EDMONTON       MOSUNNY   72  50  46 NW6       29.97R
CALGARY        MOSUNNY   75  54  46 NE16G24   30.01R
MEDICINE HAT   MOSUNNY   86  48  26 NE17G26   29.84R
WATERTON GATE    N/A     86  28  12 W10         N/A
CARDSTON         N/A     84  39  20 NW9         N/A
MILK RIVER       N/A     90  30  12 NW12        N/A
ONEFOUR          N/A     86  41  20 NE8         N/A
$$

REGIONAL REPORTS...SASKATCHEWAN

CITY           SKY/WX    TMP DP  RH WIND       PRES   REMARKS
SWIFT CURRENT  SUNNY     73  50  43 NE14      29.93R
REGINA         MOSUNNY   75  54  46 N12       29.84S
SASKATOON      PTSUNNY   70  57  64 W12       29.88F
CYPRESS HILLS    N/A     73  50  43 NE10        N/A
VAL MARIE        N/A     79  52  38 NE14        N/A
ROCKGLEN         N/A     75  55  50 N8          N/A
$$



USA.gov is the U.S. government's official web portal to all federal, state and local government web resources and services.